Погода в Кыбартаи

Поиск расширенной информации на нашем сайте:

Полезная информация:

Новости сайта



02.01.2020
Опубликован Долгосрочный прогноз погоды по городам России и ближнего зарубежья на январь 2020 года.
Карты: Прогноз на январь и февраль 2020 года, Сравнение прогнозируемой аномалии приземной температуры воздуха на январь 2020 года по разным моделям.




Погода в Кыбартаи - сегодня

Время (UTC), дата Ветер
(°,м/с) 
Видим.   Явления Облачность Т
(°С)
Тd
(°С)
f(%) Тe
(°С)
Pmin
(гПа)
dP
(гПа)
Po
(мм)
O2
(г/м3)
Тmin Tmax R s Состояние
почвы
21 15.01.22 260 (З) 4-6{06}  20000 м    1/0 
-1.4 -3.1 88 -4  1022.2  0.1  761  309           
00 16.01.22 250 (З) 4-6{06}  20000 м    6/0 
-1 -2.3 91 -4  1021.5  -0.7  760  308           
03 16.01.22 250 (З) 5-8{08}  10 км  дымка  10/10 100 м 
-0.6 -1.3 95 -4  1020.6  -0.9  760  307           
06 16.01.22 240 (ЮЗ) 5-8{09}  13000 м    9/0 
+0 -1.3 91 -3  1018.8  -1.7  758  306  -1.6         
09 16.01.22 240 (ЮЗ) 7-11{13}  16000 м    8/0 
-0.8 -3.4 83 -5  1018.1  -0.8  758  307           
12 16.01.22 230 (ЮЗ) 7-9{12}  15000 м    9/0 
-0.4 -3.2 81 -4  1015.1  -2.9  756  305           
15 16.01.22 220 (ЮЗ) 7-11{11}  10 км    9/9 300 м 
-0.8 -3.6 81 -5  1011.8  -3.3  753  305           
18 16.01.22 240 (ЮЗ) 8-13{13}  9000 м  дымка  10/10 300 м 
-0.5 -2.9 84 -5  1008.5  -3.3  751  303    -0.1  0.2     
21 16.01.22 240 (ЮЗ) 9-13{14}  7000 м  слаб. ливневой снег  10/10 200 м 
+0.4 -1 90 -4  1004.5  -3.9  748  301           
00 17.01.22 240 (ЮЗ) 10-13{16}  12000 м  в посл. час дождь  10/10 200 м 
+1.5 +0 90 -3  1000.5  -4  745  298      0.0     
06 17.01.22 240 (ЮЗ) 11-16{20}  6000 м  слаб. дождь со снегом  10/10 200 м 
+1.1 +0.1 93 -4  987.8  -7.3  735  295  -0.5       
09 17.01.22 300 (СЗ) 6-11{16}  20000 м  слаб. ливневой дождь  9/9 1000 м 
+1.2 -2.2 78 -2  993.1  5.3  739  297         
12 17.01.22 300 (СЗ) 7-12{16}  20000 м    ясно 
+1.1 -3.6 71 -3  996.7  3.6  742  298       
15 17.01.22 320 (СЗ) 8-16{20}  20000 м    1/0 
+1.5 -6.4 56 -2  1001.9  5.1  746  300           
18 17.01.22 330 (СЗ) 6-12{19}  20000 м    ясно 
+0.2 -7.4 57 -3  1010.2  8.2  752  304    +1.9     
21 17.01.22 310 (СЗ) 4-7{13}  20000 м    ясно 
-0.9 -7.6 60 -3  1015  4.8  756  306           
00 18.01.22 290 (З) 4-8{08}  20000 м    ясно <0100 м 
-0.7 -4.6 75 -3  1017.3  2.3  757  306           
03 18.01.22 300 (СЗ) 4-9{10}  20000 м    9/0 
+0.5 -3.5 75 -2  1018.8  1.5  758  305           
06 18.01.22 320 (СЗ) 3-5{10}  20000 м    ясно 
-1 -4.1 79 -3  1022.7  3.8  761  308  -1.2         
09 18.01.22 320 (СЗ) 4-8{08}  19000 м    ясно 
+0.4 -3.6 74 -2  1025.8  3.1  764  308           
12 18.01.22 320 (СЗ) 4-9{09}  20000 м    ясно <0100 м 
+1.9 -4.9 61 1027.5  1.7  765  307           
15 18.01.22 270 (З) 3-6{09}  18000 м    6/6 1000 м 
+0.5 -4.1 71 -1  1028.3  0.9  766  308           
18 18.01.22 260 (З) 3-5{06}  20000 м    5/0 
-0.7 -2.3 89 -3  1028.4  766  310    +2.1       
21 18.01.22 250 (З) 4-7{08}  20000 м    3/0 
-0.3 -2 88 -3  1027.3  -1.1  765  309           
00 19.01.22 260 (З) 6-11{11}  20000 м    10/10 300 м 
-0.1 -2.1 86 -4  1025.2  -2.1  763  308           
Время (UTC), дата Ветер
(°,м/с) 
Видим.   Явления Облачность Т
(°С)
Тd
(°С)
f(%) Тe
(°С)
Pmin
(гПа)
dP
(гПа)
Po
(мм)
O2
(г/м3)
Тmin Tmax R s Состояние
почвы

Для получения пояснительной информации подведите курсор к названию столбца.

ПОГОДА в Кыбартаи - архив

Всё, что Вы хотите узнать о погоде в Кыбартаи - удобно и подробно!

Выберите нужную дату (начиная с 1 января 2019* года) и нажмите кнопку "Найти".
Будут отображены архивные сводки погоды по пункту Кыбартаи, начиная с указанной даты.


Отображать данные в формате CSV (для использования в таблицах Excel)


Внимание! Наш архив погоды предназначен исключительно для личного некоммерческого использования в познавательных целях. Если Вам необходимы официальные справки о состоянии погоды (для производственных, юридических, коммерческих и т.п. целей), обращайтесь в органы Росгидромета.

*Примечание: данная дата относится к архиву по метеостанциям СССР (Россия, СНГ, Балтия).
Архив по метеостанциям Зарубежной Европы и Азии (кроме Китая) хранится 10 дней, по другим регионам земного шара (Китай, Африка, Америка, Австралия, Океания) - 1 день.

Кыбартаи - район местоположения метеостанции


Название, широта, долгота, высота метеостанции:
Кыбартаи 54.6°ш. 22.8°д. 59 м над ур. моря [Литва]

Дополнительная информация

В oтличие oт бoльшинства пoгoдных сайтoв мы публикуем пoдрoбную метеoинфoрмацию в детальнoм прoфессиoнальнoм фoрмате.

Характеристики температуры и влажнoсти вoздуха измеряются на высoте 2 м в тени вдали oт зданий и деревьев.
Скoрoсть ветра измеряется на высoте 10 м (на урoвне рoста челoвека скoрoсть ветра ниже в 1.5-2 раза). Если метеoстанция нахoдится в гoрoде или в лесу, тo скoрoсть ветра занижена на 2-4 м/с пo сравнению с oткрытым местoм. Скoрoсть ветра над акватoриями крупных рек и oзёр, а также на вершинах хoлмoв на 2-5 м/с выше, чем в oбычных услoвиях.
Атмoсфернoе давление в разных тoчках местнoсти мoжет значительнo oтличаться oт давления на метеoстанции, в зависимoсти oт услoвий рельефа (при пoдъёме на 10 м давление пoнижается примернo на 1 мм рт.ст.).